Home   Weather   West Fairfield   Past weeks
Flag for USA

Past Weather in West Fairfield, Pennsylvania, USA — Yesterday and Last 2 Weeks

Now
64 °F

Clear.


Feels Like: 64 °F
Forecast: 80 / 60 °F
Wind: 7 mph from South

Location: Allegheny County Airport
Current Time: Sep 27, 2020 at 12:59:54 am
Latest Report: Sep 26, 2020 at 11:53 pm
Visibility: 10 mi
Pressure29.96 "Hg
Humidity: 81%
Dew Point: 58 °F
Location of West FairfieldLocation

Past Weather in West Fairfield — Graph

°F

West Fairfield Temperature Yesterday

Maximum temperature yesterday: 76 °F (at 3:53 pm)
Minimum temperature yesterday: 59 °F (at 2:53 am)
Average temperature yesterday: 67 °F

High & Low Weather Summary for the Past Weeks

 TemperatureHumidityPressure
High81 °F (Sep 12, 1:53 pm)100% (Sep 22, 8:01 am)30.56 "Hg (Sep 22, 8:01 am)
Low40 °F (Sep 22, 8:01 am)31% (Sep 19, 4:53 pm)29.95 "Hg (Sep 26, 6:53 pm)
Average61 °F70%30.17 "Hg
* Reported Sep 11 11:53 pm — Sep 26 11:53 pm, West Fairfield. Weather by CustomWeather, © 2020

Note: Actual official high and low records may vary slightly from our data, if they occured in-between our weather recording intervals... More about our weather records

West Fairfield Weather History for the Previous 24 Hours

Scroll right to see more
 ConditionsComfort  
Time TempWeatherWind HumidityBarometerVisibility
11:53 pm
Sat, Sep 26
64 °FClear.7 mph81%29.96 "Hg10 mi
10:53 pm65 °FClear.6 mph78%29.97 "Hg10 mi
9:53 pm67 °FClear.6 mph73%29.97 "Hg10 mi
8:53 pm69 °FClear.8 mph70%29.97 "Hg10 mi
7:53 pm71 °FClear.6 mph66%29.96 "Hg10 mi
6:53 pm73 °FSunny.7 mph62%29.95 "Hg10 mi
5:53 pm75 °FScattered clouds.8 mph55%29.96 "Hg10 mi
4:53 pm75 °FPartly sunny.3 mph58%29.96 "Hg10 mi
3:53 pm76 °FScattered clouds.8 mph56%29.96 "Hg10 mi
2:53 pm75 °FOvercast.6 mph58%29.97 "Hg10 mi
1:53 pm74 °FPartly sunny.7 mph62%29.99 "Hg10 mi
1:02 pm75 °FBroken clouds.5 mph62%30.01 "Hg10 mi
12:53 pm74 °FPartly sunny.N/A64%30.01 "Hg10 mi
12:35 pm73 °FPartly sunny.3 mph66%30.02 "Hg10 mi
11:53 am71 °FScattered clouds.5 mph71%30.03 "Hg10 mi
10:53 am68 °FOvercast.7 mph73%30.05 "Hg10 mi
9:53 am65 °FMore clouds than sun.7 mph81%30.05 "Hg10 mi
8:53 am62 °FOvercast.6 mph83%30.05 "Hg10 mi
7:53 am60 °FOvercast.5 mph86%30.04 "Hg9 mi
6:53 am60 °FOvercast.5 mph86%30.02 "Hg10 mi
5:53 am59 °FOvercast.6 mph90%30.01 "Hg8 mi
4:53 am59 °FOvercast.No wind87%30.01 "Hg10 mi
3:53 am60 °FOvercast.3 mph83%30.00 "Hg10 mi
2:53 am59 °FClear.6 mph84%30.00 "Hg10 mi
1:53 am60 °FClear.5 mph80%30.00 "Hg10 mi
12:53 am62 °FClear.3 mph75%30.01 "Hg10 mi
Weather by CustomWeather, © 2020

See weather overview